Weather observations for the past three days for
Allentown Queen City Municipal Airport
Imperial (Metric)
Date Time (edt) Wind (mph) Vis. (mi.) Weather Sky Cond. Temperature (ºF) Relative Humidity Wind Chill (°F) Heat Index (°F) Pressure Precipitation (in)
Air Dwpt 6 hour altimeter (in) sea level (mb) 1 hr 3 hr 6 hr
Max. Min.
17 08:55 SW 3 10.00 Fair CLR 77 73.4 89% 78 29.89 0.0
17 08:35 SW 6 10.00 Fair CLR 77 71.6 83% 78 29.89 0.0
17 08:15 W 5 10.00 Fair CLR 75.2 71.6 89% 75 29.89 0.0
17 07:55 SW 3 10.00 Fair CLR 75.2 71.6 89% 75 29.89 0.0
17 07:35 S 3 10.00 Fair CLR 75.2 71.6 89% 75 29.88 0.0
17 07:15 Calm 10.00 Fair CLR 73.4 71.6 94% 29.87 0.0
17 06:55 SW 3 10.00 Partly Cloudy SCT120 73.4 71.6 94% 29.86 0.0
17 06:35 S 5 10.00 Mostly Cloudy BKN110 73.4 71.6 94% 29.86 0.0
17 06:15 S 5 10.00 Mostly Cloudy BKN110 73.4 71.6 94% 29.86 0.0
17 05:55 S 5 10.00 Partly Cloudy SCT120 73.4 71.6 94% 29.86 0.0
17 05:35 S 3 10.00 Partly Cloudy SCT110 73.4 71.6 94% 29.86 0.0
17 05:15 S 3 10.00 Partly Cloudy SCT110 73.4 71.6 94% 29.86 0.0
17 04:55 Calm 10.00 Fair CLR 73.4 71.6 94% 29.84 0.0
17 04:35 Calm 10.00 Fair CLR 73.4 71.6 94% 29.84 0.0
17 04:15 Calm 10.00 Fair CLR 71.6 71.6 100% 29.84 0.0
17 03:55 Calm 10.00 Fair CLR 73.4 69.8 89% 29.84 0.0
17 03:35 Calm 10.00 Fair CLR 73.4 69.8 89% 29.85 0.0
17 03:15 Calm 10.00 Fair CLR 73.4 69.8 89% 29.85 0.0
17 02:55 Calm 10.00 Partly Cloudy SCT080 73.4 69.8 89% 29.85 0.0
17 02:35 S 3 10.00 Partly Cloudy SCT080 73.4 69.8 89% 29.86 0.0
17 02:15 SE 5 10.00 Fair CLR 73.4 69.8 89% 29.86 0.0
17 01:55 Calm 10.00 Fair CLR 73.4 69.8 89% 29.86 0.0
17 01:35 Calm 10.00 Fair CLR 73.4 71.6 94% 29.86 0.0
17 01:15 Calm 10.00 Fair CLR 73.4 69.8 89% 29.86 0.0
17 00:55 SW 5 10.00 Fair CLR 75.2 69.8 83% 75 29.86 0.0
17 00:35 SW 3 10.00 Fair CLR 75.2 71.6 89% 75 29.86 0.0
17 00:15 Calm 10.00 Fair CLR 77 69.8 79% 79 29.86 0.0
16 23:55 S 6 10.00 Fair CLR 77 71.6 83% 78 29.86 0.0
16 23:35 S 5 10.00 Fair CLR 77 71.6 83% 78 29.86 0.0
16 23:15 S 5 10.00 Fair CLR 77 71.6 83% 78 29.85 0.0
16 22:55 S 5 10.00 Partly Cloudy SCT090 77 71.6 83% 78 29.85 0.0
16 22:35 S 5 10.00 Partly Cloudy SCT095 SCT110 77 73.4 89% 78 29.86 0.0
16 22:15 S 3 10.00 Mostly Cloudy SCT095 BKN120 77 73.4 89% 78 29.86 0.0
16 21:55 W 3 10.00 Partly Cloudy SCT120 77 71.6 83% 78 29.85 0.0
16 21:35 S 7 10.00 Partly Cloudy SCT120 77 73.4 89% 78 29.84 0.0
16 21:15 S 6 10.00 Mostly Cloudy BKN120 78.8 73.4 84% 82 29.84 0.0
16 20:55 S 5 10.00 Partly Cloudy SCT100 77 73.4 89% 78 29.83 0.0
16 20:35 S 6 10.00 Partly Cloudy SCT100 78.8 73.4 84% 82 29.82 0.0
16 20:15 SW 7 10.00 Partly Cloudy SCT070 SCT080 SCT110 78.8 73.4 84% 82 29.83 0.0
16 19:55 Calm 10.00 Thunderstorm in Vicinity SCT070 SCT085 SCT110 77 77 100% 78 29.82 0.0 0.02
16 19:35 S 7 10.00 Thunderstorm in Vicinity SCT060 SCT085 78.8 73.4 84% 82 29.8 0.0 0.02
16 19:15 S 10 7.00 Mostly Cloudy SCT030 SCT044 BKN060 78.8 73.4 84% 82 29.81 0.0 0.02
16 18:55 S 3 5.00 Light Rain SCT022 SCT033 BKN070 78.8 73.4 84% 82 29.78 0.0 0.05
16 18:35 SW 9 10.00 Fair CLR 80.6 69.8 70% 84 29.77 0.0
16 18:15 S 13 G 22 10.00 Fair CLR 82.4 71.6 70% 87 29.77 0.0
16 17:55 S 10 G 16 10.00 Thunderstorm in Vicinity CLR 77 69.8 79% 79 29.78 0.0 0.19
16 17:35 SW 13 G 24 10.00 Thunderstorm Light Rain NULL 77 71.6 83% 78 29.78 0.0 0.19
16 17:15 SW 7 G 29 1.50 Thunderstorm Rain in Vicinity NULL 77 71.6 83% 78 29.77 0.0 0.19
16 16:55 S 25 G 33 10.00 Breezy NULL 91.4 71.6 52% 99 29.75 0.0 0.02
16 16:35 SW 12 G 18 10.00 NULL NULL 93.2 71.6 50% 101 29.75 0.0
16 16:20 SW 16 G 21 10.00 NULL NULL 93.2 71.6 50% 101 29.75 0.0
16 15:55 SW 17 G 23 10.00 NULL NULL 95 71.6 47% 103 29.75 0.0
16 15:35 SW 15 G 21 10.00 NULL NULL 95 71.6 47% 103 29.76 0.0
16 15:15 SW 14 G 23 10.00 NULL NULL 95 71.6 47% 103 29.77 0.0
16 14:55 SW 17 G 23 10.00 NULL NULL 95 71.6 47% 103 29.78 0.0
16 14:35 S 12 G 21 10.00 NULL NULL 95 71.6 47% 103 29.78 0.0
16 14:15 SW 12 G 20 10.00 Fair CLR 95 71.6 47% 103 29.79 0.0
16 13:55 SW 14 G 22 10.00 Fair CLR 95 71.6 47% 103 29.8 0.0
16 13:35 SW 16 G 25 10.00 Fair CLR 95 71.6 47% 103 29.81 0.0
16 13:15 S 14 G 21 10.00 Fair CLR 93.2 71.6 50% 101 29.81 0.0
16 12:55 SW 12 G 18 10.00 Fair CLR 93.2 71.6 50% 101 29.83 0.0
16 12:35 SW 12 G 17 10.00 Fair CLR 91.4 71.6 52% 99 29.84 0.0
16 12:15 SW 13 G 18 10.00 Fair CLR 91.4 71.6 52% 99 29.84 0.0
16 11:55 S 13 G 16 10.00 Fair CLR 91.4 71.6 52% 99 29.84 0.0
16 11:35 SW 7 10.00 Fair CLR 89.6 71.6 55% 96 29.85 0.0
16 11:15 W 8 10.00 Fair CLR 89.6 71.6 55% 96 29.86 0.0
16 10:55 SW 9 G 16 10.00 Fair CLR 87.8 71.6 59% 94 29.86 0.0
16 10:35 SW 6 10.00 Fair CLR 87.8 73.4 62% 96 29.85 0.0
16 10:15 SW 5 10.00 Fair CLR 87.8 71.6 59% 94 29.86 0.0
16 09:55 SW 7 10.00 Fair CLR 86 71.6 62% 92 29.85 0.0
16 09:35 W 5 10.00 Fair CLR 84.2 71.6 66% 90 29.86 0.0
16 09:15 SW 5 10.00 Fair CLR 82.4 71.6 70% 87 29.86 0.0
16 08:55 S 3 10.00 Fair CLR 82.4 69.8 66% 86 29.87 0.0
16 08:35 Calm 10.00 Fair CLR 80.6 68 66% 83 29.87 0.0
16 08:15 Calm 10.00 Fair CLR 80.6 69.8 70% 84 29.87 0.0
16 07:55 Calm 10.00 Fair CLR 78.8 69.8 74% 81 29.87 0.0
16 07:35 Calm 10.00 Fair CLR 77 69.8 79% 79 29.87 0.0
16 07:15 Calm 10.00 Fair CLR 75.2 69.8 83% 75 29.86 0.0
16 06:55 Calm 10.00 Fair CLR 75.2 71.6 89% 75 29.86 0.0
16 06:35 Calm 10.00 Fair CLR 73.4 69.8 89% 29.86 0.0
16 06:15 Calm 10.00 Fair CLR 73.4 69.8 89% 29.86 0.0
16 05:55 Calm 10.00 Fair CLR 73.4 68 83% 29.86 0.0
16 05:35 SW 3 10.00 Fair CLR 75.2 68 78% 76 29.86 0.0
16 05:15 Calm 10.00 Fair CLR 73.4 68 83% 29.85 0.0
16 04:55 Calm 10.00 Fair CLR 73.4 68 83% 29.84 0.0
16 04:35 Calm 10.00 Fair CLR 75.2 68 78% 76 29.83 0.0
16 04:15 S 5 10.00 Fair CLR 73.4 68 83% 29.83 0.0
16 03:55 SW 3 10.00 Fair CLR 75.2 68 78% 76 29.83 0.0
16 03:35 S 3 10.00 Fair CLR 77 68 74% 79 29.83 0.0
16 03:15 S 5 10.00 Fair CLR 75.2 68 78% 76 29.82 0.0
16 02:55 SW 3 10.00 Fair CLR 77 68 74% 79 29.82 0.0
16 02:35 Calm 10.00 Fair CLR 77 68 74% 79 29.82 0.0
16 02:15 SW 3 10.00 Fair CLR 77 68 74% 79 29.82 0.0
16 01:55 SW 5 10.00 Fair CLR 78.8 68 70% 81 29.82 0.0
16 01:35 SW 5 10.00 Fair CLR 78.8 68 70% 81 29.82 0.0
16 01:15 SW 5 10.00 Fair CLR 78.8 69.8 74% 81 29.82 0.0
16 00:55 NW 3 10.00 Fair CLR 78.8 69.8 74% 81 29.82 0.0
16 00:35 SW 6 10.00 Fair CLR 80.6 69.8 70% 84 29.81 0.0
16 00:15 SW 7 10.00 Fair CLR 80.6 69.8 70% 84 29.82 0.0
15 23:55 SW 6 10.00 Fair CLR 80.6 69.8 70% 84 29.82 0.0
15 23:35 SW 7 10.00 Fair CLR 82.4 69.8 66% 86 29.82 0.0
15 23:15 SW 12 10.00 Fair CLR 82.4 71.6 70% 87 29.81 0.0
15 22:55 SW 12 10.00 Fair CLR 82.4 71.6 70% 87 29.82 0.0
15 22:35 SW 14 10.00 Fair CLR 84.2 69.8 62% 88 29.82 0.0
15 22:15 SW 10 10.00 Fair CLR 84.2 69.8 62% 88 29.82 0.0
15 21:55 SW 9 10.00 Fair CLR 86 69.8 59% 91 29.82 0.0
15 21:35 SW 8 10.00 Fair CLR 86 69.8 59% 91 29.82 0.0
15 21:15 SW 10 10.00 Fair CLR 86 69.8 59% 91 29.82 0.0
15 20:55 W 7 10.00 Fair CLR 86 69.8 59% 91 29.81 0.0
15 20:35 SW 6 10.00 Fair CLR 87.8 71.6 59% 94 29.81 0.0
15 20:15 S 8 10.00 Fair CLR 87.8 71.6 59% 94 29.81 0.0
15 19:55 S 7 10.00 Fair CLR 87.8 71.6 59% 94 29.81 0.0
15 19:35 SW 9 10.00 Fair CLR 89.6 69.8 52% 95 29.8 0.0
15 19:15 SW 7 10.00 Fair CLR 89.6 71.6 55% 96 29.8 0.0
15 18:55 SW 9 10.00 Fair CLR 91.4 69.8 49% 97 29.79 0.0
15 18:35 SW 8 10.00 Fair CLR 91.4 71.6 52% 99 29.8 0.0
15 18:15 SW 8 10.00 Fair CLR 91.4 69.8 49% 97 29.8 0.0
15 17:55 SW 9 10.00 Fair CLR 91.4 69.8 49% 97 29.81 0.0
15 17:35 SW 8 10.00 Fair CLR 91.4 69.8 49% 97 29.81 0.0
15 17:15 SW 7 10.00 Fair CLR 91.4 71.6 52% 99 29.81 0.0
15 16:55 SW 7 10.00 Fair CLR 91.4 71.6 52% 99 29.82 0.0
15 16:35 SW 13 10.00 Fair CLR 91.4 71.6 52% 99 29.84 0.0
15 16:15 SW 12 G 22 10.00 Fair CLR 91.4 71.6 52% 99 29.84 0.0
15 15:55 W 10 G 16 10.00 Fair CLR 91.4 69.8 49% 97 29.85 0.0
15 15:35 SW 12 10.00 Fair CLR 91.4 69.8 49% 97 29.85 0.0
15 15:15 SW 9 10.00 Fair CLR 91.4 69.8 49% 97 29.86 0.0
15 14:55 SW 9 10.00 Fair CLR 91.4 69.8 49% 97 29.88 0.0
15 14:35 SW 10 G 16 10.00 Fair CLR 91.4 68 46% 96 29.89 0.0
15 14:15 W 7 10.00 Fair CLR 91.4 68 46% 96 29.89 0.0
15 13:55 W 8 G 18 10.00 Fair CLR 89.6 68 49% 93 29.89 0.0
15 13:35 SW 12 10.00 Fair CLR 89.6 71.6 55% 96 29.9 0.0
15 13:15 SW 8 10.00 Fair CLR 89.6 71.6 55% 96 29.91 0.0
15 12:55 SW 12 G 16 10.00 Fair CLR 87.8 69.8 55% 93 29.91 0.0
15 12:35 SW 9 10.00 Fair CLR 87.8 71.6 59% 94 29.91 0.0
15 12:15 SW 9 10.00 Fair CLR 87.8 71.6 59% 94 29.92 0.0
15 11:55 SW 9 10.00 Fair CLR 87.8 71.6 59% 94 29.93 0.0
15 11:35 W 7 10.00 Fair CLR 87.8 71.6 59% 94 29.92 0.0
15 11:15 W 9 10.00 Fair CLR 86 69.8 59% 91 29.92 0.0
15 10:55 NW 5 10.00 Fair CLR 86 71.6 62% 92 29.92 0.0
15 10:35 W 7 10.00 Fair CLR 84.2 73.4 70% 91 29.93 0.0
15 10:15 SW 6 G 9 10.00 Fair CLR 82.4 73.4 74% 88 29.94 0.0
15 09:55 SW 7 10.00 Fair CLR 82.4 73.4 74% 88 29.94 0.0
15 09:35 SW 7 10.00 Fair CLR 80.6 73.4 79% 85 29.94 0.0
15 09:15 SW 6 10.00 Fair CLR 78.8 75.2 89% 82 29.94 0.0
15 08:55 SW 3 10.00 Fair CLR 78.8 73.4 84% 82 29.94 0.0
15 08:35 SW 3 10.00 Fair CLR 78.8 75.2 89% 82 29.94 0.0
15 08:15 Calm 10.00 Fair CLR 78.8 75.2 89% 82 29.93 0.0
15 07:55 Calm 7.00 Fair CLR 78.8 73.4 84% 82 29.93 0.0
15 07:35 Calm 7.00 Fair CLR 77 73.4 89% 78 29.94 0.0
15 07:15 Calm 10.00 Fair CLR 73.4 73.4 100% 29.94 0.0
15 06:55 Calm 10.00 Fair CLR 73.4 71.6 94% 29.93 0.0
15 06:35 Calm 7.00 Fair CLR 73.4 71.6 94% 29.93 0.0
15 06:15 Calm 7.00 Fair CLR 73.4 71.6 94% 29.93 0.0
15 05:55 Calm 7.00 Fair CLR 71.6 71.6 100% 29.93 0.0
15 05:35 Calm 10.00 Fair CLR 71.6 71.6 100% 29.93 0.0
15 05:15 Calm 10.00 Fair CLR 71.6 71.6 100% 29.92 0.0
15 04:55 Calm 10.00 Fair CLR 73.4 71.6 94% 29.92 0.0
15 04:35 Calm 10.00 Fair CLR 73.4 71.6 94% 29.92 0.0
15 04:15 Calm 10.00 Fair CLR 73.4 71.6 94% 29.92 0.0
15 03:55 Calm 10.00 Fair CLR 75.2 73.4 94% 74 29.92 0.0
15 03:35 Calm 10.00 Fair CLR 73.4 71.6 94% 29.92 0.0
15 03:15 Calm 10.00 Fair CLR 73.4 71.6 94% 29.92 0.0
15 02:55 Calm 10.00 Fair CLR 75.2 71.6 89% 75 29.92 0.0
15 02:35 Calm 10.00 Partly Cloudy SCT085 75.2 71.6 89% 75 29.93 0.0
15 02:15 E 3 10.00 Partly Cloudy SCT085 77 71.6 83% 78 29.93 0.0
15 01:55 Calm 10.00 Fair CLR 75.2 71.6 89% 75 29.94 0.0
15 01:35 Calm 10.00 Fair CLR 77 71.6 83% 78 29.94 0.0
15 01:15 Calm 10.00 Partly Cloudy SCT090 77 71.6 83% 78 29.95 0.0
15 00:55 Calm 10.00 Fair CLR 75.2 71.6 89% 75 29.95 0.0
15 00:35 Calm 10.00 Fair CLR 77 71.6 83% 78 29.95 0.0
15 00:15 Calm 10.00 Fair CLR 77 71.6 83% 78 29.96 0.0
14 23:55 Calm 10.00 Fair CLR 77 71.6 83% 78 29.96 0.0
14 23:35 S 3 10.00 Fair CLR 77 71.6 83% 78 29.96 0.0
14 23:15 Calm 10.00 Fair CLR 77 71.6 83% 78 29.96 0.0
14 22:55 Calm 10.00 Fair CLR 77 71.6 83% 78 29.96 0.0
14 22:35 SW 3 10.00 Fair CLR 77 71.6 83% 78 29.96 0.0
14 22:15 Calm 10.00 Fair CLR 77 71.6 83% 78 29.96 0.0
14 21:55 SW 5 10.00 Fair CLR 78.8 71.6 79% 82 29.96 0.0
14 21:35 S 5 10.00 Fair CLR 78.8 71.6 79% 82 29.96 0.0
14 21:15 S 5 10.00 Fair CLR 78.8 71.6 79% 82 29.96 0.0
14 20:55 S 3 10.00 Fair CLR 78.8 71.6 79% 82 29.96 0.0
14 20:35 SW 3 10.00 Fair CLR 78.8 71.6 79% 82 29.96 0.0
14 20:15 SW 5 10.00 Fair CLR 80.6 71.6 74% 85 29.97 0.0
14 19:55 S 6 10.00 Fair CLR 82.4 71.6 70% 87 29.97 0.0
14 19:35 S 7 10.00 Fair CLR 82.4 71.6 70% 87 29.97 0.0
14 19:15 S 6 10.00 Fair CLR 84.2 71.6 66% 90 29.97 0.0
14 18:55 SW 8 10.00 Fair CLR 84.2 71.6 66% 90 29.97 0.0
14 18:35 S 9 10.00 Fair CLR 84.2 71.6 66% 90 29.97 0.0
14 18:15 S 10 10.00 Fair CLR 86 71.6 62% 92 29.97 0.0
14 17:55 S 10 10.00 Fair CLR 86 69.8 59% 91 29.98 0.0
14 17:35 S 9 10.00 Fair CLR 86 68 55% 89 29.98 0.0
14 17:15 S 9 10.00 Fair CLR 86 68 55% 89 29.98 0.0
14 16:55 S 8 10.00 Fair CLR 86 71.6 62% 92 29.98 0.0
14 16:35 SW 9 10.00 Fair CLR 84.2 69.8 62% 88 29.99 0.0
14 16:15 S 13 G 16 10.00 Fair CLR 84.2 68 58% 87 30 0.0
14 15:55 S 10 10.00 Fair CLR 84.2 68 58% 87 30 0.0
14 15:35 S 6 10.00 Fair CLR 86 73.4 66% 93 30 0.0
14 15:15 S 8 10.00 Partly Cloudy SCT050 SCT060 SCT120 84.2 73.4 70% 91 30 0.0
14 14:55 SW 10 10.00 Partly Cloudy SCT050 SCT060 SCT120 86 73.4 66% 93 30.02 0.0
14 14:35 Calm 10.00 Partly Cloudy SCT060 84.2 73.4 70% 91 30 0.0
14 14:15 Calm 10.00 Fair CLR 80.6 71.6 74% 85 30.02 0.0
14 13:55 SW 6 10.00 Thunderstorm in Vicinity SCT030 SCT034 SCT075 78.8 73.4 84% 82 30.03 0.0
14 13:35 SW 12 G 17 10.00 Light Rain SCT022 SCT032 BKN049 80.6 73.4 79% 85 30.04 0.0
14 13:15 NW 6 10.00 Light Rain SCT031 SCT045 BKN065 80.6 71.6 74% 85 30.04 0.0
14 12:55 N 8 10.00 Partly Cloudy SCT065 SCT120 82.4 69.8 66% 86 30.05 0.0
14 12:35 N 10 10.00 Fair CLR 86 71.6 62% 92 30.06 0.0
14 12:15 N 9 10.00 Partly Cloudy SCT036 87.8 71.6 59% 94 30.05 0.0
14 11:55 N 9 10.00 Fair CLR 86 71.6 62% 92 30.07 0.0
14 11:35 NW 6 10.00 Partly Cloudy SCT075 86 71.6 62% 92 30.07 0.0
14 11:15 Calm 10.00 Partly Cloudy SCT075 86 71.6 62% 92 30.06 0.0
14 10:55 N 3 10.00 Partly Cloudy SCT075 86 71.6 62% 92 30.07 0.0
14 10:35 Calm 10.00 Partly Cloudy SCT080 84.2 71.6 66% 90 30.07 0.0
14 10:15 Calm 10.00 Partly Cloudy SCT080 84.2 71.6 66% 90 30.07 0.0
14 09:55 NE 3 10.00 Fair CLR 82.4 71.6 70% 87 30.07 0.0
14 09:35 Calm 10.00 Fair CLR 82.4 71.6 70% 87 30.08 0.0
14 09:15 Calm 10.00 Fair CLR 80.6 71.6 74% 85 30.07 0.0
Date Time (edt) Wind (mph) Vis. (mi.) Weather Sky Cond. Air Dwpt Max. Min. Relative Humidity Wind Chill (°F) Heat Index (°F) altimeter (in) sea level (mb) 1 hr 3 hr 6 hr
6 hour
Temperature (ºF) Pressure Precipitation (in)